"Time","Temp","Dewpoint","Humidity","Pressure","Direction","Speed","Gust","Precip","PrecipRate"
"00:04:56","79.8","71.1","74.7","30.16","205","2.6","7","0.00","0.00"
"00:09:56","79.6","71","75","30.16","204","1.5","5","0.00","0.00"
"00:14:57","79.5","70.9","75","30.16","188","2.4","5","0.00","0.00"
"00:19:59","79.4","70.9","75.3","30.16","184","2.3","4.6","0.00","0.00"
"00:24:56","79.2","71","76","30.16","199","1.4","3.5","0.00","0.00"
"00:29:57","79","70.8","76","30.16","194","1.4","3.5","0.00","0.00"
"00:34:58","78.9","70.7","76","30.16","194","1.1","4","0.00","0.00"
"00:39:58","78.8","70.6","76","30.16","194","0.5","3.5","0.00","0.00"
"00:44:57","78.7","70.8","76.8","30.16","195","0","1.2","0.00","0.00"
"00:49:56","78.4","70.6","77","30.15","195","0.3","2.3","0.00","0.00"
"00:54:58","78.3","70.4","77","30.15","195","0.3","2.3","0.00","0.00"
"00:59:56","78","70.6","77.9","30.15","195","0.3","2.3","0.00","0.00"
"01:04:58","77.8","70.4","78","30.15","186","1.1","3.5","0.00","0.00"
"01:09:59","77.8","70.4","78","30.15","183","0.9","3.5","0.00","0.00"
"01:14:56","77.7","70.3","78","30.15","182","0.9","2.3","0.00","0.00"
"01:19:58","77.6","70.4","78.4","30.14","180","1.4","3.5","0.00","0.00"
"01:24:55","77.4","70.4","79","30.14","178","1.5","4","0.00","0.00"
"01:29:59","77.2","70.2","79","30.14","178","0.8","3.5","0.00","0.00"
"01:34:58","77.1","70.1","79","30.13","178","0.7","2.3","0.00","0.00"
"01:39:56","76.9","70","79.2","30.13","181","0.5","4","0.00","0.00"
"01:44:58","76.9","70","79.1","30.13","182","0.8","2.3","0.00","0.00"
"01:49:57","76.9","69.9","79","30.13","182","0.6","2.3","0.00","0.00"
"01:54:59","76.9","70","79.2","30.13","182","0","0","0.00","0.00"
"01:59:58","76.8","70.2","80","30.13","182","0","0","0.00","0.00"
"02:04:59","76.7","70.1","80","30.13","182","0","0","0.00","0.00"
"02:09:58","76.6","70","80","30.13","182","0","0","0.00","0.00"
"02:14:56","76.5","69.9","80","30.13","182","0","0","0.00","0.00"
"02:19:56","76.4","69.9","80.5","30.13","182","0","0","0.00","0.00"
"02:24:59","76.2","69.9","81","30.13","182","0","0","0.00","0.00"
"02:29:58","76","69.7","81","30.13","182","0","0","0.00","0.00"
"02:34:57","75.8","69.6","81.3","30.12","182","0.4","2.3","0.00","0.00"
"02:39:58","75.7","69.8","82","30.12","181","0.5","2.3","0.00","0.00"
"02:44:58","75.5","69.6","82","30.12","181","0.6","2.3","0.00","0.00"
"02:49:57","75.3","69.5","82.1","30.11","181","0.7","2.3","0.00","0.00"
"02:54:57","75.2","69.6","82.8","30.11","181","0.2","2","0.00","0.00"
"02:59:56","75","69.5","83","30.12","181","0","0","0.00","0.00"
"03:04:58","74.8","69.4","83.3","30.12","181","0","0","0.00","0.00"
"03:09:56","74.6","69.4","84","30.12","181","0.3","2.3","0.00","0.00"
"03:14:54","74.4","69.2","84","30.12","181","0","1.2","0.00","0.00"
"03:19:59","74.2","69.3","84.8","30.12","168","0.4","2.3","0.00","0.00"
"03:24:58","74.1","69.3","85","30.12","167","0.7","2.3","0.00","0.00"
"03:29:57","74","69.2","85","30.12","167","0.5","2.3","0.00","0.00"
"03:34:58","73.9","69.1","85","30.11","167","0","0","0.00","0.00"
"03:39:57","73.8","69","85","30.11","167","0","0","0.00","0.00"
"03:44:56","73.7","69.2","85.9","30.11","167","0","0","0.00","0.00"
"03:49:59","73.6","69.2","86","30.11","167","0","1.2","0.00","0.00"
"03:54:59","73.6","69.2","86","30.11","167","0","0","0.00","0.00"
"03:59:58","73.7","69.1","85.7","30.11","167","0","1","0.00","0.00"
"04:04:59","73.6","69.1","85.7","30.11","167","0","1.2","0.00","0.00"
"04:09:57","73.5","69.1","86","30.11","167","0","0","0.00","0.00"
"04:14:56","73.4","69","86","30.11","167","0.1","1.2","0.00","0.00"
"04:19:56","73.3","68.9","86","30.10","167","0","0","0.00","0.00"
"04:24:58","73.1","68.7","86","30.10","167","0.2","2.3","0.00","0.00"
"04:29:57","73","68.6","86","30.10","167","0","1.2","0.00","0.00"
"04:34:56","73","68.8","86.9","30.10","167","0","0","0.00","0.00"
"04:39:58","72.8","68.7","87","30.10","167","0","0","0.00","0.00"
"04:44:58","72.7","68.6","87","30.10","167","0","0","0.00","0.00"
"04:49:57","72.6","68.5","87.1","30.10","167","0.2","1.2","0.00","0.00"
"04:54:56","72.4","68.6","88","30.10","167","0","0","0.00","0.00"
"04:59:59","72.2","68.4","88","30.10","167","0","0","0.00","0.00"
"05:04:57","72","68.6","89","30.10","167","0","0","0.00","0.00"
"05:09:59","71.8","68.4","89","30.10","167","0","0","0.00","0.00"
"05:14:57","71.6","68.4","89.9","30.10","167","0","0","0.00","0.00"
"05:19:56","71.4","68.3","90","30.10","167","0","0","0.00","0.00"
"05:24:56","71.3","68.2","90","30.10","167","0","0","0.00","0.00"
"05:29:56","71.1","68","90.2","30.10","167","0","0","0.00","0.00"
"05:34:59","70.9","68.1","91","30.10","167","0","0","0.00","0.00"
"05:39:57","70.8","68","91.1","30.10","167","0","0","0.00","0.00"
"05:44:58","70.6","68.2","92","30.10","167","0","0","0.00","0.00"
"05:49:59","70.6","68.2","92","30.10","167","0","0","0.00","0.00"
"05:54:58","70.6","68.2","92","30.10","167","0","0","0.00","0.00"
"05:59:58","70.4","68","92","30.10","167","0","0","0.00","0.00"
"06:04:57","70.4","68.2","92.7","30.10","167","0","0","0.00","0.00"
"06:09:59","70.3","68.2","93","30.10","167","0","0","0.00","0.00"
"06:14:58","70.2","68.1","93","30.10","167","0","0","0.00","0.00"
"06:19:59","70.1","68","93","30.10","167","0","0","0.00","0.00"
"06:24:58","70.1","68","93.1","30.10","167","0","0","0.00","0.00"
"06:29:58","70.1","68.2","93.8","30.10","167","0","0","0.00","0.00"
"06:34:57","70.1","68.3","94","30.10","167","0","0","0.00","0.00"
"06:39:59","70.2","68.4","94","30.10","167","0","0","0.00","0.00"
"06:44:59","70.4","68.6","94","30.10","167","0","0","0.00","0.00"
"06:49:59","70.5","68.6","93.8","30.10","167","0","0","0.00","0.00"
"06:54:58","70.7","68.6","93","30.10","167","0","0","0.00","0.00"
"06:59:57","70.9","68.7","92.7","30.10","167","0","0","0.00","0.00"
"07:04:56","71.1","68.7","92","30.10","167","0","0","0.00","0.00"
"07:09:58","71.3","68.9","92","30.10","167","0","0","0.00","0.00"
"07:14:56","71.7","69","91.2","30.10","167","0","0","0.00","0.00"
"07:19:59","72.1","69.3","90.9","30.10","167","0","0","0.00","0.00"
"07:24:58","72.5","69.4","90","30.10","167","0","0","0.00","0.00"
"07:29:56","72.9","69.5","88.9","30.10","167","0","0","0.00","0.00"
"07:34:59","73.4","69.6","88","30.10","167","0","0","0.00","0.00"
"07:39:56","74","69.9","87","30.10","167","0","0","0.00","0.00"
"07:44:59","74.6","70.3","86.5","30.10","167","0.1","2.3","0.00","0.00"
"07:49:56","75.2","70.5","85.6","30.10","167","0","0","0.00","0.00"
"07:54:59","75.8","70.6","84","30.10","167","0","0","0.00","0.00"
"07:59:58","76.3","70.8","82.9","30.10","167","0","0","0.00","0.00"
"08:04:56","76.7","70.8","82","30.10","165","0.3","2","0.00","0.00"
"08:09:58","77.1","71.3","82.1","30.10","113","0.3","1.2","0.00","0.00"
"08:14:59","77.6","71.4","81.1","30.10","113","0.2","2","0.00","0.00"
"08:19:57","78.2","71.4","79.7","30.10","113","0","0","0.00","0.00"
"08:24:57","78.7","71.7","79.3","30.10","113","0","0","0.00","0.00"
"08:29:59","79.3","72","78.5","30.10","113","0","0","0.00","0.00"
"08:34:56","79.8","72.1","77.7","30.10","113","0","0","0.00","0.00"
"08:39:57","80.1","72.4","77.3","30.10","113","0.1","3","0.00","0.00"
"08:44:58","80.5","72.2","76","30.10","113","0.8","3.5","0.00","0.00"
"08:49:59","80.9","72.1","74.9","30.10","113","0.3","2.3","0.00","0.00"
"08:54:56","81.2","72.9","76","30.10","113","0.8","3.5","0.00","0.00"
"08:59:59","81.3","72.7","75.4","30.10","113","0.7","3.5","0.00","0.00"
"09:04:56","81.3","73.2","76.4","30.10","113","0.8","3.5","0.00","0.00"
"09:09:59","81.6","73","75.3","30.10","114","0.7","2.3","0.00","0.00"
"09:14:56","82","73.3","74.9","30.10","113","0.6","2.3","0.00","0.00"
"09:19:57","82.6","73.6","74.4","30.10","115","0.7","2.3","0.00","0.00"
"09:24:58","83.2","73.9","73.6","30.10","128","1.1","3.5","0.00","0.00"
"09:29:58","83.9","73.8","71.8","30.10","161","1.2","4","0.00","0.00"
"09:34:55","84.2","72.9","68.9","30.10","175","1","4","0.00","0.00"
"09:39:56","84.7","73.9","70.3","30.10","175","1","2.3","0.00","0.00"
"09:44:57","85.1","74.1","69.7","30.10","180","1.5","4","0.00","0.00"
"09:49:58","85.3","73.7","68.3","30.09","215","1.2","4","0.00","0.00"
"09:54:59","85.6","72.9","65.9","30.09","300","1.7","5","0.00","0.00"
"09:59:59","85.9","72.9","65.3","30.09","316","1.4","3.5","0.00","0.00"
"10:04:56","86.2","72.8","64.5","30.09","322","1.3","4","0.00","0.00"
"10:09:58","86.4","73.2","64.9","30.09","300","1.4","4","0.00","0.00"
"10:14:58","86.7","73","63.8","30.09","326","2.2","6","0.00","0.00"
"10:19:59","87","72.9","63.1","30.09","334","2.1","5.8","0.00","0.00"
"10:24:56","87.2","73.4","63.7","30.09","277","1.8","4","0.00","0.00"
"10:29:56","87.6","73.7","63.5","30.09","224","1.3","3.5","0.00","0.00"
"10:34:57","87.9","74.1","63.7","30.09","226","1.5","3.5","0.00","0.00"
"10:39:58","87.8","73.7","63.2","30.09","295","1.7","5","0.00","0.00"
"10:44:59","87.7","74.2","64.5","30.09","355","0.9","3.5","0.00","0.00"
"10:49:56","88.1","74.2","63.7","30.08","315","1.4","6","0.00","0.00"
"10:54:56","88.5","73.9","62.1","30.08","286","1.9","4","0.00","0.00"
"10:59:57","88.6","74","62.1","30.08","306","2.1","4","0.00","0.00"
"11:04:58","88.8","74.4","62.7","30.08","216","2.3","8","0.00","0.00"
"11:09:59","89","74.1","61.7","30.08","345","2.9","8.1","0.00","0.00"
"11:14:56","89.1","74","61.3","30.08","339","0.9","5","0.00","0.00"
"11:19:58","88.9","74.4","62.3","30.08","262","1.7","3.5","0.00","0.00"
"11:24:59","88.9","74.8","63.4","30.08","179","0.9","3.5","0.00","0.00"
"11:29:56","89.2","75","63.2","30.08","235","1.4","5","0.00","0.00"
"11:34:57","89.7","74.3","60.6","30.08","267","2.3","5","0.00","0.00"
"11:39:59","90.1","74.3","60","30.08","284","1.1","5","0.00","0.00"
"11:44:57","90.5","74.4","59.4","30.08","285","2","5","0.00","0.00"
"11:49:59","90.4","74","58.7","30.08","305","1.7","4","0.00","0.00"
"11:54:57","90.4","74.2","59.2","30.08","263","1.7","4","0.00","0.00"
"11:59:55","90.5","75","60.5","30.08","216","2","5","0.00","0.00"
"12:04:56","90.9","74.6","59.1","30.07","326","2.8","7","0.00","0.00"
"12:09:58","91","74.2","58","30.07","329","2.4","6","0.00","0.00"
"12:14:59","91","75","59.5","30.07","243","2.5","5","0.00","0.00"
"12:19:58","91.2","74.8","58.9","30.07","195","2.3","10","0.00","0.00"
"12:24:56","91.3","75.4","59.9","30.07","183","3","6","0.00","0.00"
"12:29:58","91.5","74.9","58.7","30.07","267","2.3","4.6","0.00","0.00"
"12:34:59","91.6","74.8","58.1","30.07","246","0.6","3.5","0.00","0.00"
"12:39:56","91.9","75.7","59.3","30.07","237","1.5","7","0.00","0.00"
"12:44:58","92.2","75.6","58.7","30.07","239","2.4","6.9","0.00","0.00"
"12:49:59","92.4","76.2","59.4","30.06","216","2.9","6","0.00","0.00"
"12:54:57","92.5","75.8","58.5","30.06","206","2.2","7","0.00","0.00"
"12:59:59","92.7","75.4","57.4","30.06","232","2.5","6.9","0.00","0.00"
"13:04:59","92.6","75.5","57.6","30.05","223","3.3","6","0.00","0.00"
"13:09:57","92.4","74.4","56","30.05","303","2.1","5","0.00","0.00"
"13:14:57","92.4","76","59","30.05","284","1.3","4","0.00","0.00"
"13:19:58","92.6","76.2","58.9","30.05","240","2.3","5","0.00","0.00"
"13:24:59","92.9","75.9","57.9","30.05","243","2.3","5","0.00","0.00"
"13:29:57","93.1","75.3","56.5","30.05","229","1.8","9","0.00","0.00"
"13:34:57","93.2","76","57.7","30.04","196","3.5","7","0.00","0.00"
"13:39:59","93.3","76.3","58","30.04","198","3","7","0.00","0.00"
"13:44:57","93.4","76.3","58","30.04","217","2.6","5","0.00","0.00"
"13:49:58","93.6","76","56.9","30.03","238","2.5","9","0.00","0.00"
"13:54:59","93.7","75.6","55.9","30.03","191","2.1","5.8","0.00","0.00"
"13:59:57","93.7","75.1","55","30.03","175","2.7","7","0.00","0.00"
"14:04:57","93.9","75","54.6","30.02","190","4.1","10.4","0.00","0.00"
"14:09:58","94.1","75.4","54.9","30.02","230","3.1","7","0.00","0.00"
"14:14:59","94.3","76.2","56","30.02","223","2.6","7","0.00","0.00"
"14:19:56","94.5","76.3","55.9","30.01","177","2.7","6","0.00","0.00"
"14:24:56","94.7","75.8","54.5","30.01","161","1.5","5","0.00","0.00"
"14:29:57","94.7","75.8","54.6","30.01","161","2.3","5","0.00","0.00"
"14:34:58","94.8","75.2","53.4","30.00","199","3.1","7","0.00","0.00"
"14:39:57","94.9","75.9","54.4","30.00","217","1.7","4","0.00","0.00"
"14:44:58","94.8","74.2","51.7","30.00","204","3.8","10.4","0.00","0.00"
"14:49:58","94.9","75.9","54.5","29.99","207","3.8","9.2","0.00","0.00"
"14:54:58","95.1","74.4","51.6","29.99","200","2.5","5.8","0.00","0.00"
"14:59:59","95.2","76.4","55","29.99","177","2.7","6","0.00","0.00"
"15:04:56","95.3","75.7","53.5","29.98","214","4.4","10.4","0.00","0.00"
"15:09:58","94.9","74.7","52.3","29.98","199","3.9","11.5","0.00","0.00"
"15:14:59","94.6","73.8","51.3","29.98","194","4.5","9.2","0.00","0.00"
"15:19:59","94.6","73.9","51.4","29.98","175","4.6","9.2","0.00","0.00"
"15:24:56","94.7","72.9","49.5","29.98","188","3.6","7","0.00","0.00"
"15:29:56","94.8","75.1","53.2","29.98","218","3","9","0.00","0.00"
"15:34:57","95.2","74.8","52","29.97","218","4","9.2","0.00","0.00"
"15:39:57","95.3","74.7","51.7","29.97","201","2.8","9","0.00","0.00"
"15:44:58","95.5","73.8","49.9","29.97","191","4.2","9.2","0.00","0.00"
"15:49:59","95.6","75.1","51.9","29.97","222","4","12","0.00","0.00"
"15:54:57","95.5","73.1","48.8","29.97","186","3.7","9.2","0.00","0.00"
"15:59:59","95.5","73.6","49.4","29.97","194","3.7","10","0.00","0.00"
"16:04:59","95.6","74.5","50.9","29.97","217","4.1","9.2","0.00","0.00"
"16:09:56","95.6","73.3","48.8","29.97","226","4.7","11.5","0.00","0.00"
"16:14:57","95.5","73.2","48.9","29.97","211","4.2","11","0.00","0.00"
"16:19:59","95.4","73.7","49.8","29.97","224","4.7","11.5","0.00","0.00"
"16:24:55","95.4","74.4","51.1","29.97","209","4.1","9","0.00","0.00"
"16:29:57","95.4","73.9","50","29.97","234","5.3","10.4","0.00","0.00"
"16:34:57","95.3","73.9","50.2","29.97","192","3.6","7","0.00","0.00"
"16:39:58","95.5","75.1","52.1","29.97","224","3","7","0.00","0.00"
"16:44:55","95.8","74.6","50.7","29.97","236","3.6","7","0.00","0.00"
"16:49:57","96","76.1","53.1","29.96","207","2.8","7","0.00","0.00"
"16:54:58","96.1","74.9","50.9","29.96","216","3.4","7","0.00","0.00"
"16:59:59","95.9","74.8","50.9","29.96","200","4.2","9","0.00","0.00"
"17:04:55","95.6","74.6","51","29.96","207","3.3","7","0.00","0.00"
"17:09:57","95.5","74.6","51.2","29.96","186","3.4","7","0.00","0.00"
"17:14:57","95.5","75.2","52.4","29.96","220","3.6","11.5","0.00","0.00"
"17:19:58","95.4","75.3","52.5","29.95","221","4.3","10.4","0.00","0.00"
"17:24:57","95.1","74.7","52","29.95","206","3.6","11","0.00","0.00"
"17:29:58","94.9","73.8","50.7","29.95","200","4.2","11","0.00","0.00"
"17:34:58","94.9","73.5","50.3","29.95","194","4.5","10.4","0.00","0.00"
"17:39:57","94.9","74.3","51.6","29.95","205","3.6","14","0.00","0.00"
"17:44:58","94.9","74.3","51.6","29.95","198","3.2","6","0.00","0.00"
"17:49:58","94.9","73.9","50.9","29.95","208","3.8","9","0.00","0.00"
"17:54:58","94.7","74.1","51.7","29.95","210","3.9","8.1","0.00","0.00"
"17:59:58","94.7","74.7","52.6","29.95","187","3.3","10.4","0.00","0.00"
"18:04:59","94.5","73.5","50.9","29.95","204","4.6","10.4","0.00","0.00"
"18:09:56","94.3","73.8","51.7","29.95","202","3.3","11","0.00","0.00"
"18:14:56","94.2","73.5","51.4","29.95","214","4.5","11.5","0.00","0.00"
"18:19:57","93.5","73.6","52.6","29.95","245","3.8","8.1","0.00","0.00"
"18:24:58","92.9","73.8","54","29.95","226","3.3","10.4","0.00","0.00"
"18:29:58","92.6","73.5","53.9","29.95","192","3.7","11.5","0.00","0.00"
"18:34:59","92.5","73.2","53.5","29.95","194","3.2","9.2","0.00","0.00"
"18:39:59","92.2","73.3","54.1","29.95","204","3.5","7","0.00","0.00"
"18:44:59","91.8","73.5","55.2","29.95","192","1.7","4","0.00","0.00"
"18:49:59","91.4","74","57.1","29.95","197","1.2","3.5","0.00","0.00"
"18:54:56","91","73.7","57.2","29.95","209","1.2","4","0.00","0.00"
"18:59:59","90.6","73.7","57.9","29.98","315","4.3","22","0.00","0.00"
"19:04:56","87.8","72.3","60.3","29.98","318","5.8","21.9","0.00","0.00"
"19:09:57","85.3","71.3","63.2","29.98","3","6.2","14","0.00","0.00"
"19:14:56","83.6","70.9","65.8","30.00","312","4.3","12","0.00","0.00"
"19:19:56","82.5","70.8","67.7","30.00","338","3","12","0.00","0.00"
"19:24:56","81.8","70.8","69.5","30.00","327","4","14","0.00","0.00"
"19:29:59","81.2","70.8","70.8","30.03","275","4.6","16.1","0.00","0.00"
"19:34:59","80.4","71.4","74","30.03","238","3.2","16.1","0.06","0.03"
"19:39:59","79.2","72","78.8","30.03","238","1.2","3.5","0.12","0.12"
"19:44:56","77.8","71.8","81.7","30.03","267","0.7","3.5","0.13","0.13"
"19:49:58","76.8","71.7","84.5","30.01","289","0.9","2.3","0.13","0.13"
"19:54:55","76","71.8","86.8","30.01","289","0.3","2.3","0.13","0.13"
"19:59:57","75.6","72","88.7","30.01","289","0","0","0.13","0.13"
"20:04:59","75.3","72","89.5","30.01","288","0.2","2.3","0.13","0.13"
"20:09:57","75.1","72.3","91.3","30.01","288","0.1","2.3","0.13","0.13"
"20:14:55","75","72.6","92.3","30.01","288","0.7","2.3","0.13","0.13"
"20:19:59","74.9","72.4","92","30.00","288","0.1","1.2","0.13","0.13"
"20:24:57","74.8","72.3","92","30.00","288","0","0","0.13","0.13"
"20:29:59","74.7","72.5","92.7","30.00","288","0","0","0.13","0.13"
"20:34:58","74.6","72.4","93","29.98","288","0.7","2.3","0.13","0.13"
"20:39:57","74.4","72.2","93","29.98","288","0.2","1.2","0.13","0.07"
"20:44:58","74.2","72.4","93.8","29.98","288","0.1","1.2","0.13","0.01"
"20:49:58","74.2","72.4","94","29.98","288","0.4","2.3","0.13","0.00"
"20:54:57","74.2","72.4","94","29.98","288","0.2","1.2","0.13","0.00"
"20:59:58","74.1","72.4","94.3","29.98","288","0.3","1.2","0.13","0.00"
"21:04:56","74.1","72.4","94.4","29.98","288","0","0","0.13","0.00"
"21:09:56","74","72.2","94","29.98","288","0.1","1.2","0.13","0.00"
"21:14:56","73.9","72.1","94","29.98","288","0","0","0.13","0.00"
"21:19:56","73.9","72.1","94","29.98","288","0","0","0.13","0.00"
"21:24:56","73.9","72.3","94.9","29.98","288","0","0","0.13","0.00"
"21:29:57","73.9","72.2","94.5","29.99","288","0","0","0.13","0.00"
"21:34:57","73.8","72.1","94.2","29.99","288","0","0","0.13","0.00"
"21:39:57","73.7","72.2","95","29.99","288","0","0","0.13","0.00"
"21:44:57","73.7","71.9","94","29.99","288","0","0","0.13","0.00"
"21:49:57","73.7","72.1","94.8","29.99","285","0","0","0.13","0.00"
"21:54:58","73.6","72.1","95","29.99","285","0.2","2.3","0.13","0.00"
"21:59:59","73.6","72.1","95","30.00","285","0.4","2.3","0.13","0.00"
"22:04:57","73.6","72.1","95","30.00","285","0.1","1.2","0.13","0.00"
"22:09:59","73.7","72.2","95","30.00","285","0","1","0.13","0.00"
"22:14:59","73.7","72.2","95","30.00","285","0.1","1.2","0.13","0.00"
"22:19:59","73.7","72.2","95","30.00","285","0","1","0.13","0.00"
"22:24:58","73.5","72","95","30.00","285","0.3","1.2","0.13","0.00"
"22:29:58","73.4","71.9","95","30.00","285","0","0","0.13","0.00"
"22:34:58","73.2","71.7","95","30.00","285","0","0","0.13","0.00"
"22:39:57","73.1","71.6","95","30.00","285","0","0","0.13","0.00"
"22:44:57","73.1","71.6","95","30.00","285","0","0","0.13","0.00"
"22:49:57","73.1","71.8","95.9","30.00","285","0","0","0.13","0.00"
"22:54:59","73.1","71.9","96","30.00","285","0","0","0.13","0.00"
"22:59:59","73.1","71.9","96","30.00","285","0.3","2","0.13","0.00"
"23:04:57","73.3","72.1","96","30.00","285","0.8","2.3","0.13","0.00"
"23:09:59","73.3","72.1","96","30.00","285","0","0","0.13","0.00"
"23:14:57","73.2","72","96","30.00","285","0","0","0.13","0.00"
"23:19:56","73.1","71.9","96","30.00","285","0","0","0.13","0.00"
"23:24:59","73","71.8","96","30.00","285","0","0","0.13","0.00"
"23:29:59","73","71.8","96","30.00","285","0","0","0.13","0.00"
"23:34:58","73","71.8","96","29.99","285","0.5","2.3","0.13","0.00"
"23:39:55","73","71.8","96","29.99","285","0","2","0.13","0.00"
"23:44:58","73","71.8","96","29.99","285","0.5","2.3","0.13","0.00"
"23:49:57","72.9","71.7","96","29.99","285","0","1.2","0.13","0.00"
"23:54:56","72.8","71.6","96","29.99","285","0.6","2.3","0.13","0.00"
"23:59:59","72.9","71.7","96","29.99","285","0.3","2.3","0.13","0.00"
